When you browse on this site, cookies collect data to enhance your experience and personalize the content and advertising you see.
Visit our Privacy Policy to learn more. By continuing to use the site, you agree to this use of cookies and data.
  • In United Kingdom
  • List of Countries
  • For 7 days
  • Water Temperature
  • Weather Map
  • Weather Widgets
  • user-avatar
    Login

    Hourly Weather Berlin

    Today, 25 August, Sunday

    Time Temperature Precipitation Wind Pressure Humidity
    00:00 +21°C° 0 mm 3 mps 763 mmHg 63%
    01:00 +21°C° 0 mm 3 mps 763 mmHg 63%
    02:00 +20°C° 0 mm 3 mps 763 mmHg 64%
    03:00 +20°C° 0 mm 3 mps 762 mmHg 65%
    04:00 +20°C° 0 mm 3 mps 762 mmHg 66%
    05:00 +20°C° 0 mm 3 mps 762 mmHg 66%
    06:00 +21°C° 0 mm 4 mps 762 mmHg 66%
    07:00 +21°C° 0 mm 4 mps 762 mmHg 66%
    08:00 +23°C° 0 mm 4 mps 762 mmHg 61%
    09:00 +26°C° 0 mm 4 mps 762 mmHg 57%
    10:00 +28°C° 0 mm 4 mps 762 mmHg 53%
    11:00 +29°C° 0 mm 4 mps 762 mmHg 50%
    12:00 +30°C° 0 mm 4 mps 762 mmHg 47%
    13:00 +32°C° 0 mm 4 mps 762 mmHg 44%
    14:00 +32°C° 0 mm 4 mps 762 mmHg 44%
    15:00 +33°C° 0 mm 4 mps 761 mmHg 43%
    16:00 +33°C° 0 mm 4 mps 761 mmHg 43%
    17:00 +30°C° 0 mm 4 mps 761 mmHg 48%
    18:00 +29°C° 0 mm 3 mps 761 mmHg 54%
    19:00 +27°C° 0 mm 3 mps 761 mmHg 59%
    20:00 +26°C° 0 mm 3 mps 761 mmHg 61%
    21:00 +25°C° 0 mm 3 mps 762 mmHg 63%
    22:00 +23°C° 0 mm 4 mps 762 mmHg 65%
    23:00 +24°C° 0 mm 3 mps 762 mmHg 67%

    Tomorrow, 26 August, Monday

    Time Temperature Precipitation Wind Pressure Humidity
    00:00 +22°C° 0 mm 3 mps 762 mmHg 68%
    01:00 +21°C° 0 mm 3 mps 762 mmHg 70%
    02:00 +21°C° 0 mm 3 mps 762 mmHg 71%
    03:00 +21°C° 0 mm 2 mps 761 mmHg 73%
    04:00 +20°C° 0 mm 2 mps 761 mmHg 75%
    05:00 +21°C° 0 mm 3 mps 761 mmHg 74%
    06:00 +22°C° 0 mm 3 mps 761 mmHg 73%
    07:00 +22°C° 0 mm 3 mps 761 mmHg 72%
    08:00 +25°C° 0 mm 3 mps 761 mmHg 67%
    09:00 +27°C° 0 mm 3 mps 761 mmHg 62%
    10:00 +28°C° 0 mm 4 mps 761 mmHg 58%
    11:00 +29°C° 0 mm 3 mps 761 mmHg 54%
    12:00 +31°C° 0 mm 3 mps 761 mmHg 50%
    13:00 +33°C° 0 mm 3 mps 761 mmHg 46%
    14:00 +33°C° 0 mm 3 mps 760 mmHg 45%
    15:00 +33°C° 0 mm 3 mps 760 mmHg 45%
    16:00 +33°C° 0 mm 3 mps 760 mmHg 44%
    17:00 +30°C° 0 mm 3 mps 760 mmHg 49%
    18:00 +29°C° 0 mm 3 mps 760 mmHg 55%
    19:00 +27°C° 0 mm 3 mps 760 mmHg 60%
    20:00 +27°C° 0 mm 3 mps 760 mmHg 62%
    21:00 +26°C° 0 mm 3 mps 760 mmHg 64%
    22:00 +25°C° 0 mm 3 mps 760 mmHg 66%
    23:00 +24°C° 0 mm 3 mps 760 mmHg 69%

    Day after tomorrow, 27 August, Tuesday

    Time Temperature Precipitation Wind Pressure Humidity
    00:00 +24°C° 0 mm 3 mps 760 mmHg 71%
    01:00 +23°C° 0 mm 2 mps 760 mmHg 74%
    02:00 +23°C° 0 mm 2 mps 760 mmHg 76%
    03:00 +23°C° 0 mm 2 mps 760 mmHg 77%
    04:00 +21°C° 0 mm 2 mps 760 mmHg 79%
    05:00 +23°C° 0 mm 2 mps 760 mmHg 76%
    06:00 +23°C° 0 mm 2 mps 760 mmHg 74%
    07:00 +24°C° 0 mm 3 mps 760 mmHg 72%
    08:00 +26°C° 0 mm 3 mps 760 mmHg 65%
    09:00 +28°C° 0 mm 3 mps 760 mmHg 59%
    10:00 +30°C° 0 mm 3 mps 760 mmHg 52%
    11:00 +31°C° 0 mm 3 mps 760 mmHg 48%
    12:00 +34°C° 0 mm 3 mps 759 mmHg 43%
    13:00 +35°C° 0 mm 3 mps 759 mmHg 38%
    14:00 +35°C° 0 mm 3 mps 759 mmHg 37%
    15:00 +35°C° 0 mm 3 mps 758 mmHg 36%
    16:00 +35°C° 0 mm 3 mps 758 mmHg 36%
    17:00 +34°C° 0 mm 2 mps 758 mmHg 40%
    18:00 +32°C° 0 mm 2 mps 758 mmHg 44%
    19:00 +30°C° 0 mm 2 mps 758 mmHg 49%
    20:00 +29°C° 1.1 mm 2 mps 758 mmHg 56%
    21:00 +27°C° 1.1 mm 2 mps 758 mmHg 63%
    22:00 +26°C° 1.1 mm 2 mps 759 mmHg 70%
    23:00 +25°C° 0.4 mm 2 mps 759 mmHg 73%

    28 August, Wednesday

    Time Temperature Precipitation Wind Pressure Humidity
    00:00 +25°C° 0.4 mm 2 mps 758 mmHg 77%
    01:00 +24°C° 0.4 mm 2 mps 758 mmHg 80%
    02:00 +23°C° 0 mm 2 mps 758 mmHg 82%
    03:00 +23°C° 0 mm 2 mps 758 mmHg 84%
    04:00 +23°C° 0 mm 1 mps 758 mmHg 86%
    05:00 +23°C° 0 mm 1 mps 758 mmHg 84%
    06:00 +24°C° 0 mm 1 mps 758 mmHg 82%
    07:00 +24°C° 0 mm 1 mps 758 mmHg 80%
    08:00 +26°C° 0 mm 1 mps 758 mmHg 72%
    09:00 +28°C° 0 mm 1 mps 758 mmHg 64%
    10:00 +30°C° 0 mm 1 mps 758 mmHg 56%
    11:00 +31°C° 0 mm 1 mps 757 mmHg 50%
    12:00 +33°C° 0 mm 1 mps 757 mmHg 45%
    13:00 +34°C° 0 mm 1 mps 757 mmHg 40%
    14:00 +34°C° 0 mm 1 mps 756 mmHg 38%
    15:00 +34°C° 0 mm 1 mps 756 mmHg 37%
    16:00 +34°C° 0 mm 1 mps 756 mmHg 36%
    17:00 +33°C° 0 mm 1 mps 756 mmHg 40%
    18:00 +31°C° 0 mm 1 mps 755 mmHg 45%
    19:00 +30°C° 0 mm 1 mps 755 mmHg 49%
    20:00 +29°C° 0 mm 1 mps 755 mmHg 51%
    21:00 +28°C° 0 mm 1 mps 755 mmHg 54%
    22:00 +27°C° 0 mm 1 mps 755 mmHg 57%
    23:00 +27°C° 0 mm 1 mps 755 mmHg 59%

    29 August, Thursday

    Time Temperature Precipitation Wind Pressure Humidity
    00:00 +26°C° 0 mm 1 mps 755 mmHg 61%
    01:00 +25°C° 0 mm 1 mps 755 mmHg 63%
    02:00 +25°C° 0 mm 1 mps 755 mmHg 65%
    03:00 +25°C° 0 mm 1 mps 755 mmHg 68%
    04:00 +24°C° 0 mm 1 mps 755 mmHg 70%
    05:00 +25°C° 0 mm 1 mps 755 mmHg 70%
    06:00 +25°C° 0 mm 1 mps 755 mmHg 69%
    07:00 +26°C° 0 mm 1 mps 755 mmHg 69%
    08:00 +27°C° 0 mm 1 mps 755 mmHg 62%
    09:00 +29°C° 0 mm 2 mps 755 mmHg 56%
    10:00 +31°C° 0 mm 2 mps 755 mmHg 49%
    11:00 +31°C° 0 mm 2 mps 755 mmHg 45%
    12:00 +32°C° 0 mm 2 mps 755 mmHg 42%
    13:00 +34°C° 0 mm 2 mps 755 mmHg 39%
    14:00 +34°C° 0 mm 2 mps 755 mmHg 38%
    15:00 +34°C° 0 mm 2 mps 755 mmHg 37%
    16:00 +34°C° 0 mm 2 mps 755 mmHg 37%
    17:00 +32°C° 0.4 mm 4 mps 755 mmHg 45%
    18:00 +28°C° 0.4 mm 5 mps 755 mmHg 54%
    19:00 +26°C° 0.4 mm 7 mps 756 mmHg 63%
    20:00 +23°C° 1.6 mm 5 mps 756 mmHg 69%
    21:00 +22°C° 1.6 mm 4 mps 757 mmHg 75%
    22:00 +21°C° 1.6 mm 2 mps 757 mmHg 82%
    23:00 +21°C° 0 mm 2 mps 758 mmHg 83%

    30 August, Friday

    Time Temperature Precipitation Wind Pressure Humidity
    00:00 +20°C° 0 mm 2 mps 758 mmHg 85%
    01:00 +20°C° 0 mm 2 mps 758 mmHg 86%
    02:00 +20°C° 0 mm 3 mps 759 mmHg 88%
    03:00 +20°C° 0 mm 3 mps 759 mmHg 89%
    04:00 +20°C° 0 mm 4 mps 760 mmHg 91%
    05:00 +19°C° 0 mm 4 mps 760 mmHg 86%
    06:00 +19°C° 0 mm 4 mps 760 mmHg 81%
    07:00 +18°C° 0 mm 4 mps 761 mmHg 77%
    08:00 +19°C° 0 mm 4 mps 761 mmHg 69%
    09:00 +20°C° 0 mm 4 mps 762 mmHg 62%
    10:00 +21°C° 0 mm 4 mps 762 mmHg 55%
    11:00 +22°C° 0 mm 4 mps 762 mmHg 51%
    12:00 +24°C° 0 mm 3 mps 762 mmHg 46%
    13:00 +25°C° 0 mm 3 mps 762 mmHg 42%
    14:00 +25°C° 0 mm 3 mps 762 mmHg 42%
    15:00 +25°C° 0 mm 3 mps 762 mmHg 41%
    16:00 +25°C° 0 mm 2 mps 761 mmHg 41%
    17:00 +24°C° 0 mm 2 mps 761 mmHg 46%
    18:00 +21°C° 0 mm 2 mps 762 mmHg 51%
    19:00 +21°C° 0 mm 1 mps 762 mmHg 57%
    20:00 +20°C° 0 mm 1 mps 762 mmHg 59%
    21:00 +19°C° 0 mm 1 mps 762 mmHg 62%
    22:00 +19°C° 0 mm 1 mps 762 mmHg 65%
    23:00 +18°C° 0 mm 1 mps 762 mmHg 68%
    Show more